• In Hungary
  • List of Countries
  • For 7 days
  • Water Temperature
  • Satellite Maps
  • Weather Map
  • News
  • Weather Widgets
  • user-avatar
    Login

    Hourly Weather Elgabash

    Today, 17 July, Tuesday

    Time Temperature Precipitation Wind Pressure Humidity
    00:00 +20°C° 0 mm 3 mps 745 mmHg 86%
    01:00 +19°C° 0 mm 3 mps 745 mmHg 87%
    02:00 +19°C° 0 mm 3 mps 745 mmHg 88%
    03:00 +19°C° 0 mm 2 mps 745 mmHg 89%
    04:00 +18°C° 0 mm 2 mps 745 mmHg 90%
    05:00 +19°C° 0 mm 2 mps 745 mmHg 89%
    06:00 +20°C° 0 mm 3 mps 745 mmHg 87%
    07:00 +21°C° 0 mm 3 mps 745 mmHg 85%
    08:00 +22°C° 0.2 mm 3 mps 745 mmHg 83%
    09:00 +25°C° 0.2 mm 4 mps 745 mmHg 80%
    10:00 +26°C° 0 mm 4 mps 745 mmHg 75%
    11:00 +26°C° 0.3 mm 4 mps 745 mmHg 75%
    12:00 +26°C° 0.3 mm 4 mps 745 mmHg 75%
    13:00 +26°C° 0.3 mm 5 mps 745 mmHg 74%
    14:00 +26°C° 0.2 mm 5 mps 745 mmHg 74%
    15:00 +27°C° 0.2 mm 5 mps 744 mmHg 74%
    16:00 +27°C° 0.2 mm 5 mps 744 mmHg 73%
    17:00 +26°C° 0.8 mm 4 mps 744 mmHg 77%
    18:00 +25°C° 0.8 mm 4 mps 744 mmHg 81%
    19:00 +23°C° 0.8 mm 4 mps 744 mmHg 85%
    20:00 +22°C° 0.8 mm 3 mps 744 mmHg 88%
    21:00 +21°C° 0.8 mm 3 mps 744 mmHg 90%
    22:00 +21°C° 0.8 mm 3 mps 744 mmHg 93%
    23:00 +20°C° 2.2 mm 3 mps 743 mmHg 93%

    Tomorrow, 18 July, Wednesday

    Time Temperature Precipitation Wind Pressure Humidity
    00:00 +20°C° 2.2 mm 3 mps 743 mmHg 94%
    01:00 +20°C° 2.2 mm 4 mps 743 mmHg 95%
    02:00 +20°C° 1 mm 4 mps 743 mmHg 95%
    03:00 +20°C° 1 mm 4 mps 743 mmHg 95%
    04:00 +20°C° 1 mm 5 mps 743 mmHg 94%
    05:00 +20°C° 0.1 mm 5 mps 743 mmHg 93%
    06:00 +20°C° 0.1 mm 5 mps 742 mmHg 92%
    07:00 +20°C° 0.1 mm 5 mps 742 mmHg 91%
    08:00 +21°C° 0 mm 5 mps 742 mmHg 88%
    09:00 +22°C° 0 mm 5 mps 742 mmHg 85%
    10:00 +23°C° 0 mm 5 mps 742 mmHg 82%
    11:00 +25°C° 0 mm 5 mps 742 mmHg 81%
    12:00 +25°C° 0 mm 5 mps 742 mmHg 79%
    13:00 +26°C° 0 mm 4 mps 742 mmHg 78%
    14:00 +26°C° 0.5 mm 4 mps 742 mmHg 79%
    15:00 +26°C° 0.5 mm 4 mps 742 mmHg 80%
    16:00 +26°C° 0.5 mm 4 mps 742 mmHg 80%
    17:00 +26°C° 0.3 mm 4 mps 742 mmHg 83%
    18:00 +25°C° 0.3 mm 4 mps 742 mmHg 86%
    19:00 +24°C° 0.3 mm 3 mps 742 mmHg 89%
    20:00 +24°C° 0.2 mm 3 mps 743 mmHg 90%
    21:00 +22°C° 0.2 mm 3 mps 743 mmHg 92%
    22:00 +21°C° 0.2 mm 2 mps 743 mmHg 93%
    23:00 +21°C° 0.5 mm 2 mps 743 mmHg 93%

    Day after tomorrow, 19 July, Thursday

    Time Temperature Precipitation Wind Pressure Humidity
    00:00 +20°C° 0.5 mm 2 mps 743 mmHg 94%
    01:00 +20°C° 0.5 mm 2 mps 743 mmHg 94%
    02:00 +19°C° 0.5 mm 2 mps 743 mmHg 95%
    03:00 +19°C° 0.5 mm 2 mps 743 mmHg 95%
    04:00 +19°C° 0.5 mm 2 mps 743 mmHg 95%
    05:00 +19°C° 0.6 mm 2 mps 743 mmHg 95%
    06:00 +19°C° 0.6 mm 2 mps 743 mmHg 94%
    07:00 +20°C° 0.6 mm 2 mps 743 mmHg 94%
    08:00 +21°C° 0.8 mm 2 mps 743 mmHg 90%
    09:00 +23°C° 0.8 mm 2 mps 743 mmHg 86%
    10:00 +25°C° 0.8 mm 2 mps 743 mmHg 82%
    11:00 +26°C° 0.8 mm 2 mps 744 mmHg 77%
    12:00 +27°C° 0.8 mm 2 mps 744 mmHg 73%
    13:00 +27°C° 0.8 mm 2 mps 744 mmHg 68%
    14:00 +27°C° 0.7 mm 2 mps 744 mmHg 68%
    15:00 +27°C° 0.7 mm 2 mps 744 mmHg 68%
    16:00 +27°C° 0.7 mm 1 mps 744 mmHg 69%
    17:00 +27°C° 0.4 mm 1 mps 744 mmHg 72%
    18:00 +27°C° 0.4 mm 1 mps 744 mmHg 76%
    19:00 +26°C° 0.4 mm 1 mps 745 mmHg 80%
    20:00 +25°C° 0.1 mm 1 mps 745 mmHg 82%
    21:00 +23°C° 0.1 mm 1 mps 745 mmHg 85%
    22:00 +22°C° 0.1 mm 1 mps 745 mmHg 87%
    23:00 +21°C° 0 mm 1 mps 745 mmHg 88%

    20 July, Friday

    Time Temperature Precipitation Wind Pressure Humidity
    00:00 +21°C° 0 mm 1 mps 745 mmHg 89%
    01:00 +21°C° 0 mm 1 mps 745 mmHg 90%
    02:00 +20°C° 0 mm 1 mps 745 mmHg 90%
    03:00 +20°C° 0 mm 1 mps 745 mmHg 90%
    04:00 +20°C° 0 mm 1 mps 745 mmHg 91%
    05:00 +21°C° 0 mm 1 mps 746 mmHg 89%
    06:00 +22°C° 0 mm 1 mps 746 mmHg 88%
    07:00 +23°C° 0 mm 1 mps 746 mmHg 87%
    08:00 +24°C° 0.1 mm 1 mps 746 mmHg 83%
    09:00 +25°C° 0.1 mm 2 mps 746 mmHg 79%
    10:00 +26°C° 0.1 mm 2 mps 746 mmHg 76%
    11:00 +27°C° 0.7 mm 2 mps 746 mmHg 74%
    12:00 +28°C° 0.7 mm 2 mps 746 mmHg 72%
    13:00 +28°C° 0.7 mm 3 mps 746 mmHg 71%
    14:00 +28°C° 0.6 mm 2 mps 747 mmHg 71%
    15:00 +28°C° 0.6 mm 2 mps 747 mmHg 71%
    16:00 +28°C° 0.6 mm 2 mps 747 mmHg 71%
    17:00 +27°C° 0.5 mm 2 mps 747 mmHg 75%
    18:00 +27°C° 0.5 mm 2 mps 747 mmHg 79%
    19:00 +26°C° 0.5 mm 2 mps 746 mmHg 83%
    20:00 +25°C° 0.6 mm 3 mps 747 mmHg 86%
    21:00 +24°C° 0.6 mm 3 mps 747 mmHg 88%
    22:00 +21°C° 0.6 mm 3 mps 747 mmHg 91%
    23:00 +21°C° 0.1 mm 3 mps 747 mmHg 92%

    21 July, Saturday

    Time Temperature Precipitation Wind Pressure Humidity
    00:00 +20°C° 0.1 mm 3 mps 747 mmHg 93%
    01:00 +20°C° 0.1 mm 3 mps 747 mmHg 94%
    02:00 +20°C° 0.5 mm 3 mps 747 mmHg 95%
    03:00 +19°C° 0.5 mm 3 mps 747 mmHg 95%
    04:00 +19°C° 0.5 mm 4 mps 747 mmHg 95%
    05:00 +20°C° 0.1 mm 4 mps 748 mmHg 94%
    06:00 +20°C° 0.1 mm 4 mps 748 mmHg 92%
    07:00 +20°C° 0.1 mm 5 mps 748 mmHg 91%
    08:00 +22°C° 0 mm 5 mps 748 mmHg 87%
    09:00 +23°C° 0 mm 5 mps 748 mmHg 83%
    10:00 +25°C° 0 mm 5 mps 748 mmHg 79%
    11:00 +26°C° 0 mm 6 mps 748 mmHg 76%
    12:00 +26°C° 0 mm 6 mps 748 mmHg 74%
    13:00 +27°C° 0 mm 6 mps 748 mmHg 71%
    14:00 +27°C° 0 mm 6 mps 748 mmHg 71%
    15:00 +27°C° 0 mm 6 mps 748 mmHg 70%
    16:00 +28°C° 0 mm 6 mps 748 mmHg 70%
    17:00 +27°C° 0 mm 5 mps 748 mmHg 73%
    18:00 +26°C° 0 mm 5 mps 748 mmHg 76%
    19:00 +26°C° 0 mm 4 mps 748 mmHg 79%
    20:00 +25°C° 0 mm 4 mps 748 mmHg 78%
    21:00 +22°C° 0 mm 5 mps 748 mmHg 77%
    22:00 +21°C° 0 mm 5 mps 748 mmHg 76%
    23:00 +21°C° 0 mm 5 mps 748 mmHg 75%

    22 July, Sunday

    Time Temperature Precipitation Wind Pressure Humidity
    00:00 +20°C° 0 mm 5 mps 748 mmHg 74%
    01:00 +20°C° 0 mm 5 mps 749 mmHg 73%
    02:00 +19°C° 0 mm 5 mps 749 mmHg 72%
    03:00 +17°C° 0 mm 5 mps 749 mmHg 72%
    04:00 +16°C° 0 mm 5 mps 749 mmHg 71%
    05:00 +16°C° 0 mm 5 mps 749 mmHg 74%
    06:00 +16°C° 0 mm 5 mps 749 mmHg 76%
    07:00 +16°C° 0 mm 5 mps 749 mmHg 78%
    08:00 +17°C° 0 mm 6 mps 749 mmHg 76%
    09:00 +20°C° 0 mm 6 mps 749 mmHg 75%
    10:00 +21°C° 0 mm 6 mps 749 mmHg 73%
    11:00 +22°C° 0 mm 6 mps 749 mmHg 71%
    12:00 +23°C° 0 mm 6 mps 749 mmHg 69%
    13:00 +23°C° 0 mm 7 mps 749 mmHg 67%
    14:00 +24°C° 0 mm 6 mps 749 mmHg 66%
    15:00 +24°C° 0 mm 6 mps 749 mmHg 65%
    16:00 +24°C° 0 mm 6 mps 748 mmHg 64%
    17:00 +25°C° 0 mm 5 mps 748 mmHg 67%
    18:00 +23°C° 0 mm 4 mps 749 mmHg 71%
    19:00 +22°C° 0 mm 4 mps 749 mmHg 74%
    20:00 +21°C° 0 mm 4 mps 749 mmHg 76%
    21:00 +20°C° 0 mm 4 mps 749 mmHg 77%
    22:00 +18°C° 0 mm 4 mps 749 mmHg 78%
    23:00 +18°C° 0 mm 4 mps 749 mmHg 76%
    Show more